Home > Time Zones > World Clock > Weather > China > Sian > Past weeks

Flag for China Weather past 2 weeks in Sian, Shaanxi, China

Now
79 °F

Passing clouds.


Feels Like: 79 °F
Forecast: 60 / 86 °F
Wind: 3 mph from Northeast

Location: Xian/Xianyang

Current Time: May 24, 2015 at 2:31:35 PM

Latest Report: May 24, 2015 at 1:00 PM


Visibility: N/A

Pressure: 29.77 "Hg

Humidity: 45%

Dew point: 55 °F

Location of SianLocation

Historic Weather in Sian — Graph

°F

Sian temperature yesterday

Maximum temperature yesterday: 84 °F (at 4:00 PM)
Minimum temperature yesterday: 54 °F (at 5:00 AM)
Average temperature yesterday: 69 °F

Past Weeks' High & Low Weather Summary

 TemperatureHumidityPressure
High91 °F (May 18, 4:00 PM)100% (May 22, 7:00 AM)30.18 "Hg (May 22, 7:00 AM)
Low39 °F (May 12, 6:00 AM)16% (May 11, 4:00 PM)29.50 "Hg (May 13, 4:00 PM)
Average68 °F63%29.84 "Hg
* Reported May 9 1:00 PM — May 24 1:00 PM, Sian, Weather by CustomWeather, © 2015

Note: Actual official high and low records may vary slightly from our data, if they occured in-between our weather recording intervals... More about our weather records

Advertising

Sian weather history for previous 24 hours

 ConditionsComfort  
Time TempWeatherWind HumidityBarometerVisibility
1:00 PM
Sun, May 24
79 °FPassing clouds.3 mph45%29.77 "HgN/A
12:00 PM79 °FClear.6 mph45%29.80 "Hg4 mi
11:00 AM77 °FClear.3 mph44%29.80 "Hg4 mi
10:00 AM73 °FClear.6 mph53%29.83 "Hg4 mi
9:00 AM70 °FSunny.6 mph60%29.83 "Hg10 mi
8:00 AM68 °FSunny.10 mph60%29.83 "Hg10 mi
7:00 AM61 °FClear.No wind83%29.80 "Hg4 mi
6:00 AM54 °FClear.No wind94%29.80 "Hg4 mi
5:00 AM54 °FClear.No wind88%29.80 "Hg4 mi
4:00 AM55 °FClear.3 mph82%29.77 "Hg4 mi
3:00 AM57 °FClear.1 mph82%29.77 "Hg4 mi
2:00 AM59 °FClear.1 mph82%29.77 "Hg10 mi
1:00 AM61 °FClear.1 mph72%29.77 "Hg10 mi
12:00 AM61 °FClear.1 mph77%29.80 "Hg10 mi
11:00 PM
Sat, May 23
63 °FClear.1 mph77%29.80 "Hg10 mi
10:00 PM66 °FClear.1 mph64%29.80 "Hg10 mi
9:00 PM66 °FClear.1 mph64%29.77 "Hg10 mi
8:00 PM72 °FPassing clouds.3 mph50%29.74 "HgN/A
7:00 PM81 °FPassing clouds.8 mph34%29.74 "HgN/A
6:00 PM82 °FPassing clouds.8 mph30%29.74 "HgN/A
5:00 PM84 °FPassing clouds.6 mph33%29.74 "HgN/A
4:00 PM84 °FPassing clouds.6 mph31%29.77 "HgN/A
3:00 PM82 °FSunny.3 mph28%29.80 "Hg10 mi
2:00 PM82 °FClear.6 mph35%29.83 "Hg5 mi
Weather by CustomWeather, © 2015

See weather overviewHow to use our weather pages